Погода в Бериславе

Украина / Херсонская область     46°50′29″N   33°25′45″E
темп.,
°C
ветер,
м/с
пор.,
м/с
влажн.,
%
обл.,
%
осадки,
мм/ч
давл.,
гПа
погр.,
м
28 июля, ср
ср2800:00+24зюз235746 0.0 101855
03:00+23ююв22600 0.0 101736
06:00+23ююв22635 0.0 101743
09:00+28ююз33435 0.0 1017447
12:00+33зюз122753 0.0 10161961
15:00+34з332684 0.0 10152355
18:00+33зсз763157 0.0 10141443
21:00+27зюз484552 0.0 1014207
29 июля, чт
чт2900:00+23зюз46585 0.0 1015137
03:00+22юз45665 0.0 1014111
06:00+22юз35700 0.0 1013116
09:00+28юз45513 0.4 1013641
12:00+33юз55384 0.1 10121214
15:00+34юз66345 0.1 10111842
18:00+33юз77365 0.0 10101168
21:00+26юз610542 0.0 1011251
30 июля, пт
пт3000:00+23ююв347222 0.0 1011101
03:00+22юз338310 0.0 101074
06:00+22зюз348734 0.1 1010107
09:00+28зюз23595 0.1 1010620
12:00+32сз44430 0.0 10091482
15:00+34ссз343825 0.0 10082011
18:00+33сз443627 0.0 10071884
21:00+23в347739 0.0 1009114
31 июля, сб
сб3100:00+24ссв22690 0.0 101064
03:00+24с45660 0.0 1010139
06:00+24ссв45650 0.0 1011150
09:00+28ссв45490 0.0 1011827
12:00+31ссв443914 0.0 10111815
15:00+32ссв43360 0.0 10101378
18:00+31св443642 0.0 1009732
21:00+29всв354341 0.0 1010104
1 августа, вс
вс100:00+26юв34530 0.0 101074
03:00+25юв225711 0.0 101044
06:00+24ю22560 0.0 101047
09:00+30юз34401 0.0 1010571
12:00+34з33334 0.0 10102152
15:00+35сз23265 0.0 10092437
18:00+34зсз433127 0.0 10081806
21:00+28зюз48450 0.0 1009123